Погода в Сан-Жозе-дус-Пиньяйс

Бразилия     25°32′11″S   49°12′15″W
темп.,
°C
ветер,
м/с
пор.,
м/с
влажн.,
%
обл.,
%
осадки,
мм/ч
давл.,
гПа
погр.,
м
26 февраля, пт
пт2600:00+18юв498657 0.1 1014689
03:00+18вюв378570 0.2 1014610
06:00+17юв488955 0.1 1013528
09:00+20вюв487669 0.1 1015800
12:00+24вюв575747 0.1 10151250
15:00+24юв685741 0.2 10131225
18:00+20юв5107432 0.1 1013903
21:00+19юв5108049 0.1 1016825
27 февраля, сб
сб2700:00+18юв4108814 0.0 1016800
03:00+18юв498657 0.1 1015694
06:00+18юв3788100 0.1 1015524
09:00+20юв377789 0.1 1017640
12:00+24юв466072 0.4 10161021
15:00+23юв696944 3.9 10141031
18:00+20юв5118057 1.3 1014900
21:00+19юв5128878 2.4 1016847
28 февраля, вс
вс2800:00+19вюв3988100 0.5 1016662
03:00+19в259097 0.8 1014435
06:00+18в248991 0.0 1015396
09:00+19в238389 0.2 1015405
12:00+24ссв246674 4.4 1015881
15:00+23св246784 10.4 1012827
18:00+21в4779100 1.6 1012465
21:00+19в4988100 2.1 1014541
1 марта, пн
пн100:00+18в3892100 0.4 1014500
03:00+18в3790100 0.6 1013401
06:00+18св259165 0.1 1013284
09:00+22св266755 0.1 1014695
12:00+26ссв345752 2.1 10121248
15:00+26св236047 11.5 1010988
18:00+22всв3681100 14.9 1010316
21:00+21всв3778100 23.1 1012353
2 марта, вт
вт200:00+20в2586100 3.3 1014358
03:00+20св2589100 6.4 1012297
06:00+19св259196 1.9 1013312
09:00+23с377097 2.1 1014835
12:00+29ссз25460 1.3 10131625
15:00+26ссз135938 12.2 1011533
18:00+23ссв3772100 13.3 1011370
21:00+21ссв3782100 18.4 1014422